Date String (YYYY-MM-DD hh:mm:ss) UTC,Instrument flags,absolute air pressure of the measurement (hPa),sample flow rate (lpm),inlet stack bypass flow (lpm),air temperature of the measurement (°C),ambient temperature measured by the external sensor (°C),aerosol sample conditioner tube jacket temperature (°C),OPC LED temperature (°C),internal box temperature (°C),relative humidity of the measurement (%),span deviation,mass concentration of particles derived from Lorenz-Mie calculation of OPC scattering (μg/m³),mass concentration of particles derived from Lorenz-Mie calculation of OPC scattering (μg/m³),mass concentration of particles derived from Lorenz-Mie calculation of OPC scattering (μg/m³)
DateTimeUTC,F1_M11,P_M11,Q1_M11,Q2_M11,T1_M11,T2_M11,T3_M11,T4_M11,T5_M11,U1_M11,ZSPAN_M11,X0_M11,X2_M11,X1_M11
2023-11-24 17:00:00,SystemResetWarning,0833.9,5.01,000.00,019.0,018.5,000.0,027.3,020.2,12.6,0000.0,0004.31,0002.97,0002.41
2023-11-24 17:01:00,SystemResetWarning,0834.0,5.00,000.00,019.0,018.4,000.0,027.3,020.1,12.7,0000.0,0004.44,0002.99,0002.40
2023-11-24 17:02:00,SystemResetWarning,0833.9,4.99,000.00,019.0,018.4,000.0,027.3,020.1,12.7,0000.0,0004.53,0002.99,0002.38
2023-11-24 17:03:00,SystemResetWarning,0833.9,5.00,000.00,018.9,018.3,000.0,027.3,020.0,12.7,0000.0,0004.62,0003.03,0002.38
2023-11-24 17:04:00,SystemResetWarning,0833.9,4.99,000.00,018.9,018.2,000.0,027.3,020.0,12.7,0000.0,0004.63,0003.03,0002.39
2023-11-24 17:05:00,SystemResetWarning,0833.8,4.99,000.00,018.9,018.2,000.0,027.3,020.0,12.7,0000.0,0004.68,0003.05,0002.42
2023-11-24 17:06:00,SystemResetWarning,0833.9,5.01,000.00,018.9,018.1,000.0,027.2,020.0,12.8,0000.0,0004.82,0003.08,0002.43
2023-11-24 17:07:00,SystemResetWarning,0833.9,5.01,000.00,018.9,018.1,000.0,027.2,020.0,12.8,0000.0,0004.60,0003.00,0002.42
2023-11-24 17:08:00,SystemResetWarning,0833.8,5.00,000.00,018.9,018.0,000.0,027.2,020.0,12.8,0000.0,0004.80,0003.01,0002.39
2023-11-24 17:09:00,SystemResetWarning,0833.8,4.98,000.00,018.9,018.0,000.0,027.2,020.0,12.8,0000.0,0004.87,0003.02,0002.39
2023-11-24 17:10:00,SystemResetWarning,0833.8,5.00,000.00,018.9,018.0,000.0,027.2,020.1,12.8,0000.0,0004.61,0002.94,0002.37
2023-11-24 17:11:00,SystemResetWarning,0833.8,5.02,000.00,018.9,018.4,000.0,027.2,020.6,12.7,0000.0,0004.41,0002.91,0002.36
2023-11-24 17:12:00,SystemResetWarning,0833.8,5.00,000.00,019.1,019.2,000.0,027.3,021.0,12.6,0000.0,0004.27,0002.89,0002.35
2023-11-24 17:13:00,SystemResetWarning,0833.9,5.00,000.00,019.2,019.4,000.0,027.3,020.9,12.6,0000.0,0004.28,0002.89,0002.36
2023-11-24 17:14:00,SystemResetWarning,0833.9,4.99,000.00,019.2,019.2,000.0,027.3,020.6,12.6,0000.0,0004.56,0002.92,0002.38
2023-11-24 17:15:00,SystemResetWarning,0833.8,5.00,000.00,019.2,019.1,000.0,027.3,020.5,12.7,0000.0,0005.22,0002.97,0002.40
2023-11-24 17:16:00,SystemResetWarning,0833.8,5.00,000.00,019.2,018.9,000.0,027.3,020.3,12.7,0000.0,0005.22,0002.94,0002.39
2023-11-24 17:17:00,SystemResetWarning,0833.8,5.00,000.00,019.1,018.8,000.0,027.3,020.3,12.8,0000.0,0005.97,0002.99,0002.40
2023-11-24 17:18:00,SystemResetWarning,0833.8,5.00,000.00,019.1,018.7,000.0,027.3,020.3,12.8,0000.0,0005.99,0003.00,0002.41
2023-11-24 17:19:00,SystemResetWarning,0833.8,5.00,000.00,019.1,018.6,000.0,027.3,020.2,12.8,0000.0,0005.84,0003.02,0002.44
2023-11-24 17:20:00,SystemResetWarning,0833.8,5.01,000.00,019.1,018.5,000.0,027.3,020.2,12.8,0000.0,0006.06,0003.07,0002.46
2023-11-24 17:21:00,SystemResetWarning,0833.8,5.01,000.00,019.1,018.4,000.0,027.3,020.2,12.7,0000.0,0006.73,0003.10,0002.49
2023-11-24 17:22:00,SystemResetWarning,0833.7,5.00,000.00,019.0,018.4,000.0,027.3,020.2,12.7,0000.0,0006.80,0003.12,0002.51
2023-11-24 17:23:00,SystemResetWarning,0833.7,4.99,000.00,019.0,018.3,000.0,027.3,020.2,12.7,0000.0,0006.84,0003.13,0002.54
2023-11-24 17:24:00,SystemResetWarning,0833.7,5.00,000.00,019.0,018.2,000.0,027.3,020.1,12.7,0000.0,0006.83,0003.15,0002.57
2023-11-24 17:25:00,SystemResetWarning,0833.7,5.00,000.00,019.0,018.2,000.0,027.3,020.1,12.7,0000.0,0006.57,0003.15,0002.59
2023-11-24 17:26:00,SystemResetWarning,0833.7,5.00,000.00,019.0,018.1,000.0,027.3,020.1,12.7,0000.0,0005.90,0003.16,0002.60
2023-11-24 17:27:00,SystemResetWarning,0833.7,4.99,000.00,018.9,018.1,000.0,027.3,020.0,12.6,0000.0,0005.79,0003.17,0002.62
2023-11-24 17:28:00,SystemResetWarning,0833.7,4.99,000.00,018.9,018.1,000.0,027.3,020.0,12.5,0000.0,0005.05,0003.13,0002.62
2023-11-24 17:29:00,SystemResetWarning,0833.7,5.00,000.00,018.9,018.0,000.0,027.3,020.0,12.5,0000.0,0005.02,0003.13,0002.61
2023-11-24 17:30:00,SystemResetWarning,0833.7,5.01,000.00,018.9,018.3,000.0,027.3,020.5,12.4,0000.0,0004.94,0003.10,0002.59
2023-11-24 17:31:00,SystemResetWarning,0833.7,5.00,000.00,019.1,019.2,000.0,027.3,021.0,12.4,0000.0,0004.64,0003.05,0002.55
2023-11-24 17:32:00,SystemResetWarning,0833.7,5.00,000.00,019.2,019.5,000.0,027.3,021.0,12.3,0000.0,0004.02,0003.04,0002.53
2023-11-24 17:33:00,SystemResetWarning,0833.6,4.99,000.00,019.3,019.3,000.0,027.3,020.7,12.3,0000.0,0004.01,0003.00,0002.50
2023-11-24 17:34:00,SystemResetWarning,0833.7,5.00,000.00,019.2,019.2,000.0,027.4,020.4,12.3,0000.0,0003.90,0002.94,0002.45
2023-11-24 17:35:00,SystemResetWarning,0833.7,5.00,000.00,019.2,019.0,000.0,027.4,020.3,12.4,0000.0,0003.91,0002.89,0002.41
2023-11-24 17:36:00,SystemResetWarning,0833.6,5.00,000.00,019.1,018.8,000.0,027.4,020.3,12.3,0000.0,0003.98,0002.86,0002.35
2023-11-24 17:37:00,SystemResetWarning,0833.6,5.00,000.00,019.1,018.7,000.0,027.4,020.2,12.3,0000.0,0003.80,0002.75,0002.31
2023-11-24 17:38:00,SystemResetWarning,0833.6,5.01,000.00,019.1,018.6,000.0,027.4,020.1,12.3,0000.0,0003.89,0002.74,0002.27
2023-11-24 17:39:00,SystemResetWarning,0833.5,5.01,000.00,019.1,018.5,000.0,027.4,020.1,12.3,0000.0,0003.93,0002.75,0002.25
2023-11-24 17:40:00,SystemResetWarning,0833.5,5.00,000.00,019.0,018.4,000.0,027.3,020.1,12.3,0000.0,0004.01,0002.75,0002.24
2023-11-24 17:41:00,SystemResetWarning,0833.4,5.00,000.00,019.0,018.3,000.0,027.3,020.1,12.3,0000.0,0004.12,0002.76,0002.24
2023-11-24 17:42:00,SystemResetWarning,0833.5,5.00,000.00,019.0,018.3,000.0,027.3,020.1,12.2,0000.0,0004.25,0002.78,0002.24
2023-11-24 17:43:00,SystemResetWarning,0833.4,5.00,000.00,019.0,018.2,000.0,027.3,020.1,12.2,0000.0,0004.28,0002.79,0002.24
2023-11-24 17:44:00,SystemResetWarning,0833.4,5.00,000.00,019.0,018.2,000.0,027.3,020.1,12.2,0000.0,0004.34,0002.81,0002.25
2023-11-24 17:45:00,SystemResetWarning,0833.4,5.00,000.00,018.9,018.1,000.0,027.3,020.1,12.2,0000.0,0004.42,0002.82,0002.25
2023-11-24 17:46:00,SystemResetWarning,0833.3,5.00,000.00,018.9,018.1,000.0,027.3,020.1,12.2,0000.0,0004.49,0002.85,0002.26
2023-11-24 17:47:00,SystemResetWarning,0833.4,5.00,000.00,018.9,018.1,000.0,027.3,020.0,12.2,0000.0,0004.47,0002.84,0002.28
2023-11-24 17:48:00,SystemResetWarning,0833.4,5.01,000.00,019.0,018.3,000.0,027.3,020.4,12.1,0000.0,0004.49,0002.86,0002.30
2023-11-24 17:49:00,SystemResetWarning,0833.4,5.01,000.00,019.1,019.0,000.0,027.3,020.9,12.1,0000.0,0004.71,0002.90,0002.30
2023-11-24 17:50:00,SystemResetWarning,0833.4,4.99,000.00,019.2,019.4,000.0,027.3,021.1,12.0,0000.0,0004.70,0002.91,0002.31
2023-11-24 17:51:00,SystemResetWarning,0833.2,4.99,000.00,019.3,019.3,000.0,027.4,020.8,11.9,0000.0,0004.66,0002.90,0002.31
2023-11-24 17:52:00,SystemResetWarning,0833.2,5.01,000.00,019.2,019.2,000.0,027.4,020.5,12.0,0000.0,0004.56,0002.92,0002.31
2023-11-24 17:53:00,SystemResetWarning,0833.2,5.00,000.00,019.2,019.0,000.0,027.4,020.4,12.1,0000.0,0004.37,0002.90,0002.31
2023-11-24 17:54:00,SystemResetWarning,0833.2,5.00,000.00,019.2,018.8,000.0,027.4,020.3,12.1,0000.0,0004.32,0002.89,0002.31
2023-11-24 17:55:00,SystemResetWarning,0833.2,5.00,000.00,019.1,018.7,000.0,027.4,020.2,12.1,0000.0,0005.45,0002.86,0002.30
2023-11-24 17:56:00,SystemResetWarning,0833.2,5.00,000.00,019.1,018.6,000.0,027.4,020.2,12.2,0000.0,0006.08,0002.88,0002.30
2023-11-24 17:57:00,SystemResetWarning,0833.2,5.00,000.00,019.1,018.5,000.0,027.4,020.2,12.3,0000.0,0006.90,0002.89,0002.31
2023-11-24 17:58:00,SystemResetWarning,0833.2,5.01,000.00,019.1,018.5,000.0,027.4,020.2,12.3,0000.0,0007.19,0002.87,0002.31
2023-11-24 17:59:00,SystemResetWarning,0833.2,5.01,000.00,019.1,018.4,000.0,027.4,020.2,12.3,0000.0,0007.22,0002.87,0002.31
